SL-14 R/B (20466 NORAD) Tracking and Keplerian Element Data

This shows tracking and keplerian element data for the satellite.

Feedback or suggestion? Click here.




ElementValue
Catalog20466
NameSL-14 R/B
Epoch Orbit72531
Epoch Day16.11718992
Epoch Year2022
RAAN246.133
Inclination82.5019
Eccentricity0.0019185
Argument of Perigee237.6894
Mean Anonmoly122.2462
Mean Motion14.81465344
Decay Rate1.75E-06
L11 20466U 90010B 22016.11718992 .00000175 00000+0 19370-4 0 9993
L22 20466 82.5019 246.1330 0019185 237.6894 122.2462 14.81465344725314

Live tracking and technical data element details for SL-14 R/B (NORAD 20466). SL-14 R/B can be tracked NOW for your location showing map with azimuth and elevation plus other details from your city location.

Track the satellite on the map from your city or location and see movement details for azimuth, elevation, latitude, longitude, range, height, and movement on the map or in text.







IsCatalogInMostPopularTable: catalog: 20466, numindb: 307
Update: records affected: 1



GetName: 20466 SL-14 R/B

Hit Count: updated at: Mon, 17 Jan 2022 01:39:11 GMT